EW5393 Weather Reports


time (UTC)temp
C
wind
direction
speed
KPH
gust
KPH
rain 1hr
cm
rain 24hr
cm
rain mn
cm
humidity
%
barometer
mb
20260906234304 14 53 1.6 1.6 0.00 0.30 0.15 83 1018.2
20260906233804 14 53 1.6 1.6 0.00 0.33 0.15 84 1018.2
20260906233304 14 53 1.6 1.6 0.00 0.33 0.15 84 1018.1
20260906232804 14 53 1.6 1.6 0.00 0.33 0.15 84 1018.2
20260906232307 14 53 1.6 1.6 0.00 0.33 0.15 85 1018.1
20260906231804 14 53 1.6 1.6 0.00 0.36 0.15 84 1018.1
20260906231303 14 53 1.6 1.6 0.00 0.36 0.15 85 1018.1
20260906230804 14 53 1.6 1.6 0.00 0.36 0.15 84 1018.2
20260906230304 14 53 1.6 1.6 0.00 0.36 0.15 84 1018.3
20260906225804 14 53 1.6 1.6 0.00 0.38 0.15 85 1018.3
20260906225307 14 53 1.6 1.6 0.00 0.38 0.15 86 1018.2
20260906224804 14 53 1.6 1.6 0.00 0.38 0.15 86 1018.3
20260906224304 14 53 1.6 1.6 0.00 0.38 0.15 85 1018.2
20260906223804 14 53 1.6 1.6 0.00 0.38 0.15 85 1018.3
20260906223304 14 53 1.6 1.6 0.00 0.38 0.15 85 1018.3
20260906222803 14 53 1.6 1.6 0.00 0.38 0.15 86 1018.3
20260906221803 14 53 1.6 1.6 0.00 0.38 0.15 85 1018.4
20260906221304 14 53 1.6 1.6 0.00 0.38 0.15 87 1018.4
20260906220304 13 53 1.6 1.6 0.00 0.38 0.15 88 1018.6
20260906215804 13 53 1.6 1.6 0.00 0.38 0.15 88 1018.5
20260906214803 13 53 1.6 1.6 0.00 0.41 0.15 88 1018.4
20260906214304 13 53 1.6 1.6 0.00 0.43 0.15 88 1018.5
20260906213804 13 53 1.6 1.6 0.00 0.43 0.15 87 1018.5
20260906213304 13 53 1.6 1.6 0.00 0.43 0.15 87 1018.4
20260906212804 13 53 1.6 1.6 0.00 0.43 0.15 88 1018.6
20260906212306 13 53 1.6 1.6 0.00 0.43 0.15 89 1018.6
20260906211304 13 53 1.6 1.6 0.00 0.46 0.15 89 1018.6
20260906210304 13 53 1.6 1.6 0.00 0.48 0.15 89 1018.6
20260906205804 13 53 1.6 1.6 0.00 0.48 0.15 89 1018.5
20260906205306 12 53 1.6 1.6 0.00 0.48 0.15 89 1018.9
20260906204803 12 53 1.6 1.6 0.00 0.48 0.15 89 1018.7
20260906204304 12 53 1.6 1.6 0.00 0.51 0.15 90 1018.6
20260906203804 12 53 1.6 1.6 0.00 0.51 0.15 90 1018.7
20260906203304 12 53 1.6 1.6 0.00 0.51 0.15 90 1018.6
20260906202803 12 53 1.6 1.6 0.00 0.53 0.15 90 1018.7
20260906202306 12 53 1.6 1.6 0.00 0.53 0.15 90 1018.8
20260906201304 12 53 1.6 1.6 0.00 0.56 0.15 91 1018.8
20260906200803 12 53 1.6 1.6 0.00 0.56 0.15 91 1018.9
20260906200304 12 53 1.6 1.6 0.00 0.58 0.15 92 1019.0
20260906195803 12 53 1.6 1.6 0.00 0.58 0.15 92 1019.2
20260906195306 12 53 1.6 1.6 0.00 0.58 0.15 92 1019.1
20260906194804 12 53 1.6 1.6 0.00 0.61 0.15 92 1019.1
20260906194304 12 53 1.6 1.6 0.00 0.61 0.15 92 1018.9
20260906193803 12 53 1.6 1.6 0.00 0.61 0.15 92 1019.1
20260906193304 12 53 1.6 1.6 0.00 0.61 0.15 92 1019.2
20260906192803 12 53 1.6 1.6 0.00 0.61 0.15 93 1019.4
20260906192306 12 53 1.6 1.6 0.00 0.61 0.15 93 1019.1
20260906191804 11 53 1.6 1.6 0.00 0.61 0.15 94 1019.3
20260906191304 11 53 1.6 1.6 0.00 0.61 0.15 94 1019.3
20260906190804 11 53 1.6 1.6 0.00 0.61 0.15 94 1019.3
20260906190304 11 53 1.6 1.6 0.00 0.61 0.15 94 1019.4
20260906185804 11 53 1.6 1.6 0.00 0.61 0.15 94 1019.4
20260906184804 11 53 1.6 1.6 0.00 0.61 0.15 94 1019.6
20260906184304 11 53 1.6 1.6 0.00 0.58 0.15 94 1019.6
20260906183803 11 53 1.6 1.6 0.00 0.58 0.15 94 1019.6
20260906182804 11 53 1.6 1.6 0.00 0.58 0.15 94 1019.5
20260906182306 11 53 1.6 1.6 0.00 0.58 0.15 94 1019.6
20260906181804 11 53 1.6 1.6 0.00 0.61 0.15 94 1019.5
20260906181304 11 53 1.6 1.6 0.00 0.61 0.15 94 1019.6
20260906180803 10 53 1.6 1.6 0.00 0.61 0.15 94 1019.8
20260906175804 10 53 1.6 1.6 0.00 0.61 0.15 94 1019.6
20260906175306 10 53 1.6 1.6 0.00 0.61 0.15 94 1019.9
20260906174804 10 53 1.6 1.6 0.00 0.61 0.15 94 1019.8
20260906174304 10 53 1.6 1.6 0.00 0.61 0.15 94 1019.7
20260906173804 10 53 1.6 1.6 0.00 0.61 0.15 93 1020.0
20260906172803 10 53 1.6 1.6 0.00 0.61 0.15 93 1020.0
20260906172306 10 53 1.6 1.6 0.00 0.61 0.15 93 1020.1
20260906171803 10 53 1.6 1.6 0.00 0.61 0.15 92 1019.9
20260906170804 10 53 1.6 1.6 0.00 0.61 0.15 92 1020.0
20260906170304 10 53 1.6 1.6 0.00 0.61 0.15 92 1020.1
20260906165804 10 53 1.6 1.6 0.00 0.61 0.15 92 1020.0
20260906164804 10 53 1.6 1.6 0.00 0.61 0.15 92 1020.4
20260906163804 10 53 1.6 1.6 0.00 0.61 0.15 92 1020.5
20260906163304 10 53 1.6 1.6 0.03 0.61 0.15 91 1020.4
20260906162803 10 53 1.6 1.6 0.05 0.61 0.15 91 1020.4
20260906162306 10 53 1.6 1.6 0.05 0.61 0.15 91 1020.4
20260906161804 10 53 1.6 1.6 0.05 0.61 0.15 91 1020.5
20260906161304 10 53 1.6 1.6 0.05 0.61 0.15 91 1020.6
20260906160304 10 53 1.6 1.6 0.05 0.61 0.15 91 1020.4
20260906155803 10 53 1.6 1.6 0.05 0.61 0.15 91 1020.4
20260906154804 10 53 1.6 1.6 0.05 0.61 0.15 91 1020.4
20260906154304 10 53 1.6 1.6 0.05 0.61 0.15 91 1020.3
20260906153804 10 53 1.6 1.6 0.05 0.61 0.13 90 1020.4
20260906153304 10 53 1.6 1.6 0.03 0.58 0.10 91 1020.4
20260906152804 10 53 1.6 1.6 0.00 0.56 0.08 91 1020.3
20260906152307 10 53 1.6 1.6 0.00 0.56 0.08 92 1020.5
20260906151803 10 53 1.6 1.6 0.00 0.56 0.08 92 1020.4
20260906151304 10 53 1.6 1.6 0.00 0.56 0.08 92 1020.4
20260906150804 10 53 1.6 1.6 0.00 0.56 0.08 92 1020.4
20260906150303 10 53 1.6 1.6 0.00 0.56 0.08 92 1020.5
20260906145804 10 53 1.6 1.6 0.00 0.56 0.08 92 1020.3
20260906145306 10 53 1.6 1.6 0.00 0.56 0.08 92 1020.4
20260906144804 10 53 1.6 1.6 0.00 0.56 0.08 92 1020.4
20260906144304 10 53 1.6 1.6 0.00 0.56 0.08 92 1020.4
20260906143804 10 53 1.6 1.6 0.00 0.56 0.08 92 1020.4
20260906143304 10 53 1.6 1.6 0.00 0.56 0.08 92 1020.4
20260906142804 10 53 1.6 1.6 0.00 0.56 0.08 92 1020.2
20260906142306 10 53 1.6 1.6 0.00 0.56 0.08 92 1020.3
20260906141804 10 53 1.6 1.6 0.00 0.56 0.08 92 1020.5
20260906141304 10 53 1.6 1.6 0.00 0.56 0.08 92 1020.3
20260906140803 10 53 1.6 1.6 0.00 0.56 0.08 92 1020.3
20260906140303 10 53 1.6 1.6 0.05 0.56 0.08 92 1020.6
20260906135804 10 53 1.6 1.6 0.05 0.56 0.08 92 1020.3
20260906135306 10 53 1.6 1.6 0.05 0.56 0.08 92 1020.6
20260906134304 10 53 1.6 1.6 0.08 0.56 0.08 92 1020.3
20260906133804 10 53 1.6 1.6 0.08 0.56 0.08 92 1020.6
20260906133303 10 53 1.6 1.6 0.08 0.56 0.08 92 1020.5
20260906132804 10 53 1.6 1.6 0.08 0.56 0.08 92 1020.5
20260906132306 10 53 1.6 1.6 0.08 0.56 0.08 92 1020.6
20260906131804 10 53 1.6 1.6 0.08 0.56 0.08 92 1020.7
20260906130804 10 53 1.6 1.6 0.05 0.53 0.08 92 1020.5
20260906130304 10 53 1.6 1.6 0.03 0.51 0.05 92 1020.9
20260906125804 10 53 1.6 1.6 0.03 0.51 0.05 92 1020.7
20260906125306 10 53 1.6 1.6 0.03 0.51 0.03 92 1020.7
20260906124804 10 53 1.6 1.6 0.00 0.48 0.00 92 1020.8
20260906123304 10 53 1.6 1.6 0.00 0.48 0.00 92 1020.7
20260906122804 10 53 1.6 1.6 0.00 0.48 0.00 92 1020.9
20260906122306 10 53 1.6 1.6 0.00 0.48 0.00 92 1020.9
20260906121804 10 53 1.6 1.6 0.00 0.48 0.00 93 1021.2
20260906121303 10 53 1.6 1.6 0.00 0.48 0.00 93 1021.2
20260906120804 10 53 1.6 1.6 0.00 0.48 0.00 93 1021.1
20260906120304 10 53 1.6 1.6 0.00 0.48 0.00 93 1021.4
20260906115804 10 53 1.6 1.6 0.00 0.48 0.00 93 1021.6
20260906115306 10 53 1.6 1.6 0.00 0.48 0.00 93 1021.6
20260906114804 10 53 1.6 1.6 0.00 0.48 0.00 93 1021.8
20260906114304 10 53 1.6 1.6 0.00 0.48 0.00 93 1021.9
20260906113804 10 53 1.6 1.6 0.00 0.48 0.00 93 1021.8
20260906112804 10 53 1.6 1.6 0.00 0.48 0.00 93 1021.6
20260906112306 10 53 1.6 1.6 0.00 0.48 0.00 93 1021.8
20260906111804 10 53 1.6 1.6 0.00 0.48 0.00 93 1021.9
20260906111304 10 53 1.6 1.6 0.00 0.48 0.00 93 1022.0
20260906110804 10 53 1.6 1.6 0.00 0.48 0.00 93 1021.9
20260906110303 10 53 1.6 1.6 0.00 0.48 0.00 93 1021.6
20260906105804 10 53 1.6 1.6 0.00 0.48 0.00 93 1022.0
20260906105306 10 53 1.6 1.6 0.00 0.48 0.00 93 1022.0
20260906104804 9 53 1.6 1.6 0.00 0.48 0.00 93 1022.0
20260906104304 9 53 1.6 1.6 0.00 0.48 0.00 93 1022.0
20260906103803 9 53 1.6 1.6 0.00 0.48 0.00 93 1021.6
20260906103303 9 53 1.6 1.6 0.00 0.48 0.00 93 1021.9
20260906102804 9 53 1.6 1.6 0.00 0.48 0.00 93 1021.6
20260906102306 9 53 1.6 1.6 0.00 0.48 0.00 93 1021.4
20260906101804 9 53 1.6 1.6 0.00 0.48 0.00 93 1021.6
20260906100303 9 53 1.6 1.6 0.00 0.48 0.00 93 1021.6
20260906095804 9 53 1.6 1.6 0.00 0.48 0.00 93 1021.5
20260906095306 9 53 1.6 1.6 0.00 0.48 0.00 93 1021.7
20260906094803 9 53 1.6 1.6 0.00 0.48 0.00 93 1021.6
20260906094304 10 53 1.6 1.6 0.00 0.48 0.00 93 1022.0
20260906093804 10 53 1.6 1.6 0.00 0.48 0.00 93 1021.9
20260906093303 10 53 1.6 1.6 0.00 0.48 0.00 93 1022.3
20260906092804 10 53 1.6 1.6 0.00 0.48 0.00 93 1022.0
20260906092306 10 53 1.6 1.6 0.00 0.48 0.00 93 1021.9
20260906091804 9 53 1.6 1.6 0.00 0.48 0.00 93 1022.1
20260906090804 9 53 1.6 1.6 0.00 0.48 0.00 93 1022.2
20260906085804 9 53 1.6 1.6 0.00 0.48 0.00 92 1022.3
20260906085306 9 53 1.6 1.6 0.00 0.48 0.00 92 1022.2
20260906084803 9 53 1.6 1.6 0.00 0.48 0.00 91 1022.4
20260906084304 10 53 1.6 1.6 0.00 0.48 0.00 91 1022.4
20260906083803 10 53 1.6 1.6 0.00 0.48 0.00 91 1022.5
20260906083304 10 53 1.6 1.6 0.00 0.48 0.00 91 1022.6
20260906082804 10 53 1.6 1.6 0.00 0.48 0.00 91 1022.5
20260906082306 10 53 1.6 1.6 0.00 0.48 0.00 91 1022.7
20260906081804 10 53 1.6 1.6 0.00 0.48 0.00 91 1023.0
20260906081304 10 53 1.6 1.6 0.00 0.48 0.00 91 1022.7
20260906080804 10 53 1.6 1.6 0.00 0.48 0.00 91 1022.8
20260906080304 10 53 1.6 1.6 0.00 0.48 0.00 91 1022.7
20260906075804 10 53 1.6 1.6 0.00 0.48 0.00 91 1022.9
20260906075306 10 53 1.6 1.6 0.00 0.48 0.00 91 1022.5
20260906074804 10 53 1.6 1.6 0.00 0.48 0.00 91 1022.9
20260906074304 10 53 1.6 1.6 0.00 0.48 0.00 91 1022.8
20260906073804 10 53 1.6 1.6 0.00 0.48 0.00 91 1022.8
20260906072804 10 53 1.6 1.6 0.00 0.48 0.00 91 1022.7
20260906072306 10 53 1.6 1.6 0.00 0.48 0.00 91 1022.8
20260906071804 10 53 1.6 1.6 0.00 0.48 0.00 91 1022.9
20260906071304 10 53 1.6 1.6 0.00 0.48 0.00 91 1023.0
20260906070804 10 53 1.6 1.6 0.00 0.48 0.00 91 1023.0
20260906070304 10 53 1.6 1.6 0.00 0.48 0.00 91 1022.8
20260906065804 10 53 1.6 1.6 0.00 0.48 0.00 91 1023.2
20260906065305 10 53 1.6 1.6 0.00 0.48 0.00 91 1023.0
20260906064803 10 53 1.6 1.6 0.00 0.48 0.00 91 1023.1
20260906064304 10 53 1.6 1.6 0.00 0.48 0.00 91 1022.9
20260906063804 10 53 1.6 1.6 0.00 0.48 0.00 91 1023.0
20260906063304 10 53 1.6 1.6 0.00 0.48 0.00 91 1023.3
20260906062804 10 53 1.6 1.6 0.00 0.48 0.00 91 1023.0
20260906062306 10 53 1.6 1.6 0.00 0.48 0.00 91 1023.0
20260906061804 10 53 1.6 1.6 0.00 0.48 0.00 91 1022.9
20260906060304 10 53 1.6 1.6 0.00 0.48 0.00 91 1022.9
20260906055804 10 53 1.6 1.6 0.00 0.48 0.48 91 1023.1
20260906055306 10 53 1.6 1.6 0.00 0.48 0.48 91 1022.9
20260906054804 10 53 1.6 1.6 0.03 0.48 0.48 91 1023.2
20260906054304 10 53 1.6 1.6 0.05 0.48 0.48 91 1023.0
20260906053804 10 53 1.6 1.6 0.05 0.48 0.48 91 1023.2
20260906053304 10 53 1.6 1.6 0.05 0.48 0.48 91 1023.1
20260906052804 10 53 1.6 1.6 0.05 0.48 0.48 91 1023.0
20260906052306 10 53 1.6 1.6 0.05 0.48 0.48 91 1023.1
20260906051804 10 53 1.6 1.6 0.05 0.48 0.48 91 1023.1
20260906051304 10 53 1.6 1.6 0.05 0.48 0.48 91 1023.1
20260906050804 10 53 1.6 1.6 0.05 0.48 0.48 91 1023.1
20260906050304 10 53 1.6 1.6 0.05 0.48 0.48 91 1023.0
20260906045804 10 53 1.6 1.6 0.05 0.46 0.46 91 1023.3
20260906045306 10 53 1.6 1.6 0.05 0.46 0.46 91 1023.2
20260906044804 10 53 1.6 1.6 0.03 0.46 0.46 91 1023.3
20260906044304 10 53 1.6 1.6 0.00 0.43 0.43 91 1023.3
20260906043804 10 53 1.6 1.6 0.00 0.43 0.43 91 1023.4
20260906042803 10 53 1.6 1.6 0.00 0.43 0.43 91 1023.3
20260906042306 10 53 1.6 1.6 0.00 0.43 0.43 91 1023.1
20260906041804 10 53 1.6 1.6 0.00 0.43 0.43 91 1023.3
20260906041304 10 53 1.6 1.6 0.00 0.43 0.43 91 1023.1
20260906040804 10 53 1.6 1.6 0.00 0.43 0.43 91 1023.0
20260906040304 10 53 1.6 1.6 0.00 0.43 0.43 91 1023.2
20260906035804 10 53 1.6 1.6 0.00 0.43 0.43 91 1023.0
20260906035306 10 53 1.6 1.6 0.00 0.43 0.43 91 1022.9
20260906033804 10 53 1.6 1.6 0.00 0.43 0.43 91 1022.7
20260906033304 10 53 1.6 1.6 0.00 0.43 0.43 91 1022.8
20260906032804 10 53 1.6 1.6 0.00 0.43 0.43 91 1022.6
20260906032306 10 53 1.6 1.6 0.00 0.43 0.43 91 1022.6
20260906031804 10 53 1.6 1.6 0.00 0.43 0.43 91 1022.5
20260906031304 10 53 1.6 1.6 0.00 0.43 0.43 91 1022.3
20260906030804 10 53 1.6 1.6 0.00 0.43 0.43 91 1022.6
20260906030304 10 53 1.6 1.6 0.00 0.43 0.43 91 1022.6
20260906025804 10 53 1.6 1.6 0.00 0.43 0.43 91 1022.6
20260906025306 10 53 1.6 1.6 0.00 0.43 0.43 91 1022.6
20260906024804 10 53 1.6 1.6 0.00 0.43 0.43 91 1022.5
20260906024303 10 53 1.6 1.6 0.00 0.43 0.43 91 1022.6
20260906023804 10 53 1.6 1.6 0.03 0.43 0.43 91 1022.4
20260906023303 10 53 1.6 1.6 0.03 0.43 0.43 91 1022.4
20260906022804 10 53 1.6 1.6 0.03 0.43 0.43 91 1022.5
20260906022306 10 53 1.6 1.6 0.03 0.43 0.43 91 1022.6
20260906021804 10 53 1.6 1.6 0.03 0.43 0.43 91 1022.5
20260906021303 10 53 1.6 1.6 0.03 0.43 0.43 91 1022.9
20260906020804 10 53 1.6 1.6 0.03 0.43 0.43 91 1022.8
20260906020303 10 53 1.6 1.6 0.03 0.43 0.43 91 1022.8
20260906015804 10 53 1.6 1.6 0.03 0.41 0.41 91 1022.6
20260906015306 10 53 1.6 1.6 0.03 0.41 0.41 91 1022.7
20260906014804 10 53 1.6 1.6 0.03 0.41 0.41 91 1022.7
20260906014303 10 53 1.6 1.6 0.03 0.41 0.41 91 1022.8
20260906013804 10 53 1.6 1.6 0.03 0.41 0.41 91 1022.5
20260906012804 10 53 1.6 1.6 0.03 0.38 0.38 91 1022.5
20260906012306 10 53 1.6 1.6 0.03 0.38 0.38 91 1022.4
20260906011804 10 53 1.6 1.6 0.03 0.38 0.38 91 1022.7
20260906011303 10 53 1.6 1.6 0.03 0.38 0.38 91 1022.5
20260906010804 10 53 1.6 1.6 0.05 0.38 0.38 91 1022.3
20260906010304 10 53 1.6 1.6 0.05 0.38 0.38 91 1022.4
20260906005804 10 53 1.6 1.6 0.05 0.38 0.38 91 1022.5
20260906005306 10 53 1.6 1.6 0.05 0.38 0.38 91 1022.3
20260906004804 10 53 1.6 1.6 0.05 0.38 0.38 91 1022.3
20260906004304 10 53 1.6 1.6 0.08 0.38 0.38 91 1022.4
20260906003303 10 53 1.6 1.6 0.08 0.38 0.38 91 1022.6
20260906002804 10 53 1.6 1.6 0.08 0.38 0.38 91 1022.5
20260906002306 10 53 1.6 1.6 0.10 0.38 0.38 91 1022.5
20260906001804 10 53 1.6 1.6 0.10 0.36 0.36 91 1022.5
20260906001304 10 53 1.6 1.6 0.10 0.36 0.36 91 1022.4
20260906000804 10 53 1.6 1.6 0.10 0.36 0.36 91 1022.3
20260906000304 10 53 1.6 1.6 0.08 0.33 0.33 91 1022.4
20260905235804 10 53 1.6 1.6 0.08 0.33 0.33 91 1022.5
20260905235306 10 53 1.6 1.6 0.08 0.33 0.33 91 1022.4
20260905234804 10 53 1.6 1.6 0.08 0.33 0.33 91 1022.4